Location: Shenandoah County Park
(38.9356°N, 78.4524°W)
Time: 05:12:59
(UTC-04:00)

Explorer 11/Cluster Stage 4 - Pass Details

Date: 26 February 2024
Orbit: 465 x 1220 km, 28.8° (Epoch: 12 April)

Event Time Altitude Azimuth Distance (km) Brightness Sun altitude
Rises 06:23:34 0° 258° (WSW) 3,752 - -6.1°
Exits shadow 06:25:04 - 251° (WSW) 3,358 9.2 -5.9°
Reaches altitude 10° 06:29:50 10° 216° (SW) 2,530 8.9 -4.9°
Maximum altitude 06:30:13 10° 213° (SSW) 2,508 8.9 -4.9°
Drops below altitude 10° 06:30:36 10° 209° (SSW) 2,494 8.9 -4.8°
Sets 06:36:02 0° 164° (SSE) 3,151 10.0 -3.7°
